Weather History for Sexton Summit, OR

Change the Weather History Date:

Saturday, January 18, 2014

  Actual Average Record
Temperature  
Mean Temperature 52 °F -  
Max Temperature 57 °F 39 °F 60 °F (2003)
Min Temperature 48 °F 32 °F 26 °F (2002)
Degree Days  
Heating Degree Days 12    
Growing Degree Days 2 (Base 50)    
Moisture  
Dew Point 18 °F    
Average Humidity 26    
Maximum Humidity 37    
Minimum Humidity 17    
Precipitation  
Precipitation 0.00 in - - ()
Sea Level Pressure  
Sea Level Pressure 30.14 in    
Wind  
Wind Speed 6 mph (ESE)    
Max Wind Speed 10 mph    
Max Gust Speed -    
Visibility 10 miles    
Events      
Averages and records for this station are not official NWS values.
T = Trace of Precipitation, MM = Missing Value Source: NWS Daily Summary

Daily Weather History Graph

Daily Weather History Graph

Search for Another Location

Airport:

Trip Planner

Search our weather history database for the weather conditions in past years. The results will help you decide how hot, cold, wet, or windy it might be!

Date:

Astronomy

Jan. 18, 2014 Rise Set
Actual Time 7:39 AM PST 5:09 PM PST
Civil Twilight 7:08 AM PST 5:40 PM PST
Nautical Twilight 6:33 AM PST 6:14 PM PST
Astronomical Twilight 5:59 AM PST 6:48 PM PST
Moon 8:01 PM PST (1/18) 8:37 AM PST (1/18)
Length of Visible Light 10h 32m
Length of Day
9h 30m
Waning Gibbous, 94% of the Moon is Illuminated
Jan 18
Waning Gibbous
Jan 23
Last Quarter
Jan 30
New
Feb 6
First Quarter
Feb 14
Full

Hourly Weather History & Observations

Time (PST) Temp. Dew Point Humidity Pressure Visibility Wind Dir Wind Speed Gust Speed Precip Events Conditions
12:56 AM 53.1 °F 12.9 °F 20% 30.14 in 10.0 mi SSE 6.9 mph - N/A   Clear
1:56 AM 53.1 °F 12.9 °F 20% 30.14 in 10.0 mi SE 6.9 mph - N/A   Clear
2:56 AM 54.0 °F 9.0 °F 17% 30.16 in 10.0 mi SSE 4.6 mph - N/A   Clear
3:56 AM 54.0 °F 12.9 °F 20% 30.15 in 10.0 mi SE 4.6 mph - N/A   Clear
4:56 AM 51.1 °F 16.0 °F 25% 30.17 in 10.0 mi ESE 3.5 mph - N/A   Clear
5:56 AM 51.1 °F 16.0 °F 25% 30.17 in 10.0 mi ESE 4.6 mph - N/A   Clear
6:56 AM 51.1 °F 15.1 °F 24% 30.18 in 10.0 mi East 4.6 mph - N/A   Clear
7:56 AM 51.1 °F 16.0 °F 25% 30.17 in 10.0 mi ESE 9.2 mph - N/A   Clear
8:56 AM 52.0 °F 21.0 °F 30% 30.19 in 10.0 mi East 4.6 mph - N/A   Clear
9:56 AM 52.0 °F 19.9 °F 28% 30.20 in 10.0 mi ESE 10.4 mph - N/A   Clear
10:56 AM 54.0 °F 21.9 °F 29% 30.19 in 10.0 mi ESE 8.1 mph - N/A   Clear
11:56 AM 54.0 °F 19.9 °F 26% 30.18 in 10.0 mi ESE 10.4 mph - N/A   Clear
12:56 PM 57.9 °F 24.1 °F 27% 30.13 in 10.0 mi East 4.6 mph - N/A   Clear
1:56 PM 57.0 °F 19.9 °F 24% 30.12 in 10.0 mi SE 3.5 mph - N/A   Clear
2:56 PM 57.0 °F 19.0 °F 23% 30.09 in 10.0 mi Calm Calm - N/A   Clear
3:56 PM 57.0 °F 17.1 °F 21% 30.10 in 10.0 mi Calm Calm - N/A   Clear
4:56 PM 55.0 °F 16.0 °F 22% 30.12 in 10.0 mi North 6.9 mph - N/A   Clear
5:56 PM 50.0 °F 21.0 °F 32% 30.13 in 10.0 mi NNW 8.1 mph - N/A   Clear
6:56 PM 51.1 °F 17.1 °F 26% 30.12 in 10.0 mi North 10.4 mph - N/A   Clear
7:56 PM 51.1 °F 19.0 °F 28% 30.11 in 10.0 mi ESE 8.1 mph - N/A   Clear
8:56 PM 50.0 °F 19.0 °F 29% 30.11 in 10.0 mi SSE 9.2 mph - N/A   Clear
9:56 PM 48.9 °F 21.0 °F 33% 30.11 in 10.0 mi SSE 6.9 mph - N/A   Clear
10:56 PM 48.9 °F 21.0 °F 33% 30.10 in 10.0 mi SSE 8.1 mph - N/A   Clear
11:56 PM 48.0 °F 23.0 °F 37% 30.10 in 10.0 mi SSE 10.4 mph - N/A   Clear